User: anonymous
Location: Oshawa
(43.9000°N, 78.8670°W)
Time: 09:35:56
(UTC-04:00)
Language:

Iridium 46 - Orbit

View from above orbital plane
View from above orbital plane
View from above satellite
View from above satellite

Ground track
Ground track

The orbit data is extracted from the following two-line orbital elements,

1 24905U 97043C   14107.74046546  .00000225  00000-0  80250-4 0  8067
2 24905 086.4009 019.2888 0002885 081.8010 278.4008 14.34222589872079
Epoch (UTC): 17 April 2014 17:46:16
Eccentricity: 0.0002885
inclination: 86.4009°
perigee height: 775 km
apogee height: 780 km
right ascension of ascending node: 19.2888°
argument of perigee: 81.8010°
revolutions per day: 14.34222589
mean anomaly at epoch: 278.4008°
orbit number at epoch: 87207

The dashed part of the orbit path shows where the satellite is in the earth's shadow,  

DLR